TimeEDT,TemperatureF,Dew PointF,Humidity,Sea Level PressureIn,VisibilityMPH,Wind Direction,Wind SpeedMPH,Gust SpeedMPH,PrecipitationIn,Events,Conditions,WindDirDegrees,DateUTC
12:54 AM,60.1,55.0,83,30.06,10.0,SSW,4.6,-,N/A,,Mostly Cloudy,200,2012-09-18 04:54:00
1:54 AM,60.1,55.9,86,30.06,10.0,SSW,5.8,-,N/A,,Mostly Cloudy,210,2012-09-18 05:54:00
2:54 AM,59.0,55.9,90,30.06,10.0,SSW,5.8,-,N/A,,Overcast,200,2012-09-18 06:54:00
3:54 AM,59.0,57.0,93,30.04,10.0,South,4.6,-,N/A,,Overcast,190,2012-09-18 07:54:00
4:54 AM,59.0,55.9,90,30.04,10.0,South,4.6,-,N/A,,Overcast,180,2012-09-18 08:54:00
5:54 AM,60.1,57.0,90,30.02,10.0,South,8.1,-,N/A,,Overcast,170,2012-09-18 09:54:00
6:54 AM,59.0,55.9,90,30.02,10.0,South,5.8,-,N/A,,Mostly Cloudy,170,2012-09-18 10:54:00
7:54 AM,63.0,57.0,81,30.02,10.0,South,5.8,-,N/A,,Mostly Cloudy,170,2012-09-18 11:54:00
8:54 AM,64.0,57.9,80,30.02,10.0,SSE,8.1,-,N/A,,Mostly Cloudy,160,2012-09-18 12:54:00
9:54 AM,68.0,59.0,73,30.01,10.0,SSE,12.7,-,N/A,,Overcast,150,2012-09-18 13:54:00
10:54 AM,68.0,59.0,73,29.99,10.0,SSE,10.4,-,N/A,,Overcast,150,2012-09-18 14:54:00
11:54 AM,70.0,60.1,71,29.96,10.0,SSE,15.0,-,N/A,,Overcast,160,2012-09-18 15:54:00
12:28 PM,69.8,60.8,73,29.94,10.0,South,13.8,-,N/A,,Overcast,170,2012-09-18 16:28:00
12:51 PM,73.4,62.6,69,29.93,10.0,South,18.4,-,N/A,,Mostly Cloudy,170,2012-09-18 16:51:00
12:54 PM,73.0,62.1,68,29.93,10.0,South,18.4,-,N/A,,Overcast,170,2012-09-18 16:54:00
1:54 PM,73.0,62.1,68,29.90,10.0,South,19.6,-,N/A,,Overcast,170,2012-09-18 17:54:00
2:54 PM,72.0,63.0,73,29.88,10.0,South,21.9,29.9,0.00,Rain,Light Rain,180,2012-09-18 18:54:00
3:54 PM,72.0,63.0,73,29.85,10.0,South,19.6,31.1,0.00,,Overcast,170,2012-09-18 19:54:00
4:54 PM,73.0,64.0,73,29.83,10.0,South,23.0,33.4,N/A,,Overcast,170,2012-09-18 20:54:00
5:54 PM,73.0,64.0,73,29.81,10.0,South,26.5,36.8,0.00,,Overcast,170,2012-09-18 21:54:00
6:39 PM,73.4,64.4,73,29.80,10.0,South,28.8,35.7,N/A,,Overcast,180,2012-09-18 22:39:00
6:54 PM,73.9,64.9,73,29.79,10.0,South,29.9,41.4,N/A,,Overcast,180,2012-09-18 22:54:00
7:54 PM,73.9,64.9,73,29.78,10.0,South,27.6,36.8,N/A,,Overcast,180,2012-09-18 23:54:00
8:54 PM,73.9,64.9,73,29.76,10.0,South,33.4,46.0,N/A,,Overcast,180,2012-09-19 00:54:00
9:54 PM,73.9,64.9,73,29.74,10.0,South,31.1,41.4,0.00,Rain,Light Rain,180,2012-09-19 01:54:00
10:54 PM,73.9,66.0,76,29.73,7.0,South,34.5,46.0,0.00,Rain,Light Rain,180,2012-09-19 02:54:00
11:01 PM,73.4,66.2,78,29.72,9.0,South,32.2,46.0,0.00,,Overcast,180,2012-09-19 03:01:00
11:28 PM,73.4,66.2,78,29.72,10.0,South,32.2,43.7,0.00,,Overcast,180,2012-09-19 03:28:00
11:54 PM,73.0,66.9,81,29.71,9.0,South,32.2,46.0,0.00,Rain,Light Rain,180,2012-09-19 03:54:00